TimeCDT,TemperatureF,Dew PointF,Humidity,Sea Level PressureIn,VisibilityMPH,Wind Direction,Wind SpeedMPH,Gust SpeedMPH,PrecipitationIn,Events,Conditions,WindDirDegrees,DateUTC
12:15 AM,33.8,32.0,93,30.07,10.0,South,10.4,-,N/A,,Clear,190,2013-03-15 05:15:00
12:35 AM,33.8,32.0,93,30.06,10.0,South,11.5,-,N/A,,Clear,190,2013-03-15 05:35:00
12:55 AM,33.8,30.2,87,30.05,10.0,South,11.5,-,N/A,,Clear,190,2013-03-15 05:55:00
1:15 AM,35.6,32.0,87,30.06,10.0,SSW,8.1,-,N/A,,Clear,200,2013-03-15 06:15:00
1:35 AM,33.8,30.2,87,30.06,10.0,SSW,5.8,-,N/A,,Clear,210,2013-03-15 06:35:00
1:55 AM,33.8,30.2,87,30.06,10.0,SW,3.5,-,N/A,,Clear,220,2013-03-15 06:55:00
2:15 AM,33.8,30.2,87,30.06,10.0,SSW,4.6,-,N/A,,Clear,210,2013-03-15 07:15:00
2:35 AM,33.8,30.2,87,30.05,7.0,SSW,4.6,-,N/A,,Clear,200,2013-03-15 07:35:00
2:55 AM,32.0,30.2,93,30.04,7.0,South,3.5,-,N/A,,Clear,190,2013-03-15 07:55:00
3:15 AM,32.0,30.2,93,30.03,7.0,South,4.6,-,N/A,,Clear,180,2013-03-15 08:15:00
3:35 AM,32.0,30.2,93,30.02,7.0,SSE,4.6,-,N/A,,Clear,160,2013-03-15 08:35:00
4:15 AM,30.2,30.2,100,30.00,5.0,South,3.5,-,N/A,,Clear,180,2013-03-15 09:15:00
4:35 AM,30.2,30.2,100,29.99,5.0,Calm,Calm,-,N/A,,Clear,0,2013-03-15 09:35:00
4:55 AM,30.2,30.2,100,29.98,5.0,South,3.5,-,N/A,,Clear,170,2013-03-15 09:55:00
5:15 AM,32.0,30.2,93,29.97,7.0,SSE,4.6,-,N/A,,Clear,160,2013-03-15 10:15:00
5:35 AM,30.2,30.2,100,29.97,5.0,SSE,3.5,-,N/A,,Clear,160,2013-03-15 10:35:00
5:55 AM,32.0,30.2,93,29.97,5.0,Calm,Calm,-,N/A,,Clear,0,2013-03-15 10:55:00
6:15 AM,30.2,30.2,100,29.97,5.0,Calm,Calm,-,N/A,,Clear,0,2013-03-15 11:15:00
6:35 AM,32.0,30.2,93,29.97,5.0,Calm,Calm,-,N/A,,Clear,0,2013-03-15 11:35:00
6:55 AM,32.0,30.2,93,29.97,7.0,SSW,3.5,-,N/A,,Clear,200,2013-03-15 11:55:00
7:15 AM,32.0,30.2,93,29.97,5.0,South,4.6,-,N/A,,Clear,190,2013-03-15 12:15:00
7:35 AM,32.0,30.2,93,29.97,5.0,SSW,3.5,-,N/A,,Clear,200,2013-03-15 12:35:00
7:55 AM,33.8,30.2,87,29.96,5.0,South,4.6,-,N/A,,Clear,190,2013-03-15 12:55:00
8:15 AM,33.8,32.0,93,29.97,5.0,Calm,Calm,-,N/A,,Clear,0,2013-03-15 13:15:00
8:35 AM,33.8,32.0,93,29.96,5.0,Calm,Calm,-,N/A,,Clear,0,2013-03-15 13:35:00
8:55 AM,33.8,32.0,93,29.96,5.0,Calm,Calm,-,N/A,,Clear,0,2013-03-15 13:55:00
9:15 AM,35.6,33.8,93,29.96,7.0,SSW,4.6,-,N/A,,Clear,200,2013-03-15 14:15:00
9:35 AM,35.6,33.8,93,29.96,7.0,SSW,3.5,-,N/A,,Clear,210,2013-03-15 14:35:00
10:55 AM,39.2,35.6,87,29.95,7.0,West,5.8,-,N/A,,Clear,270,2013-03-15 15:55:00
11:15 AM,41.0,35.6,81,29.94,7.0,WSW,5.8,-,N/A,,Clear,250,2013-03-15 16:15:00
11:35 AM,42.8,35.6,76,29.93,7.0,WSW,6.9,-,N/A,,Clear,250,2013-03-15 16:35:00
11:55 AM,42.8,37.4,81,29.92,7.0,SW,4.6,-,N/A,,Clear,230,2013-03-15 16:55:00
12:15 PM,44.6,37.4,76,29.91,7.0,Calm,Calm,-,N/A,,Clear,0,2013-03-15 17:15:00
12:35 PM,44.6,37.4,76,29.90,7.0,SSE,3.5,-,N/A,,Clear,160,2013-03-15 17:35:00
12:55 PM,46.4,37.4,71,29.89,7.0,Calm,Calm,-,N/A,,Clear,0,2013-03-15 17:55:00
1:15 PM,46.4,39.2,76,29.90,7.0,Calm,Calm,-,N/A,,Clear,0,2013-03-15 18:15:00
1:35 PM,48.2,39.2,71,29.90,7.0,Calm,Calm,-,N/A,,Clear,0,2013-03-15 18:35:00
1:55 PM,50.0,39.2,66,29.88,7.0,SW,3.5,-,N/A,,Clear,230,2013-03-15 18:55:00
2:15 PM,50.0,39.2,66,29.87,10.0,Calm,Calm,-,N/A,,Clear,0,2013-03-15 19:15:00
2:35 PM,50.0,39.2,66,29.86,10.0,Calm,Calm,-,N/A,,Clear,0,2013-03-15 19:35:00
2:55 PM,51.8,39.2,62,29.85,10.0,SSW,4.6,-,N/A,,Clear,210,2013-03-15 19:55:00
3:15 PM,51.8,39.2,62,29.84,7.0,Calm,Calm,-,N/A,,Scattered Clouds,0,2013-03-15 20:15:00
3:35 PM,51.8,39.2,62,29.84,10.0,Calm,Calm,-,N/A,,Clear,0,2013-03-15 20:35:00
3:55 PM,51.8,39.2,62,29.83,10.0,Calm,Calm,-,N/A,,Clear,0,2013-03-15 20:55:00
4:15 PM,51.8,41.0,67,29.83,10.0,ENE,3.5,-,N/A,,Clear,60,2013-03-15 21:15:00
4:35 PM,51.8,42.8,71,29.82,10.0,ENE,6.9,-,N/A,,Scattered Clouds,70,2013-03-15 21:35:00
4:55 PM,51.8,42.8,71,29.81,10.0,East,9.2,-,N/A,,Clear,80,2013-03-15 21:55:00
5:15 PM,50.0,42.8,76,29.79,7.0,East,10.4,-,N/A,,Scattered Clouds,90,2013-03-15 22:15:00
5:35 PM,48.2,44.6,87,29.77,7.0,East,10.4,-,N/A,,Scattered Clouds,80,2013-03-15 22:35:00
5:55 PM,48.2,44.6,87,29.77,7.0,ENE,10.4,-,N/A,,Scattered Clouds,70,2013-03-15 22:55:00
6:15 PM,48.2,44.6,87,29.77,5.0,East,9.2,-,N/A,,Clear,100,2013-03-15 23:15:00
6:35 PM,48.2,42.8,82,29.76,7.0,ESE,11.5,-,N/A,,Clear,110,2013-03-15 23:35:00
6:55 PM,48.2,42.8,82,29.78,7.0,East,5.8,-,N/A,,Scattered Clouds,80,2013-03-15 23:55:00
7:15 PM,46.4,42.8,87,29.78,5.0,East,6.9,-,N/A,,Scattered Clouds,90,2013-03-16 00:15:00
7:35 PM,44.6,42.8,93,29.79,5.0,East,6.9,-,N/A,,Scattered Clouds,80,2013-03-16 00:35:00
7:55 PM,44.6,42.8,93,29.78,5.0,East,9.2,-,N/A,,Mostly Cloudy,80,2013-03-16 00:55:00
8:15 PM,44.6,42.8,93,29.77,5.0,East,11.5,-,N/A,,Overcast,80,2013-03-16 01:15:00
8:35 PM,46.4,42.8,87,29.76,7.0,East,12.7,-,N/A,,Overcast,90,2013-03-16 01:35:00
8:55 PM,46.4,42.8,87,29.76,7.0,ESE,12.7,-,N/A,,Overcast,110,2013-03-16 01:55:00
9:15 PM,46.4,42.8,87,29.75,7.0,ESE,12.7,-,N/A,,Overcast,110,2013-03-16 02:15:00
9:35 PM,46.4,42.8,87,29.73,7.0,ESE,12.7,-,N/A,,Overcast,110,2013-03-16 02:35:00
9:55 PM,46.4,42.8,87,29.73,7.0,ESE,10.4,-,N/A,,Mostly Cloudy,110,2013-03-16 02:55:00
10:15 PM,44.6,42.8,93,29.72,5.0,ESE,9.2,-,N/A,,Scattered Clouds,110,2013-03-16 03:15:00
10:35 PM,44.6,42.8,93,29.72,5.0,ENE,8.1,-,N/A,,Scattered Clouds,70,2013-03-16 03:35:00
10:55 PM,42.8,41.0,93,29.71,5.0,NE,11.5,-,N/A,,Clear,50,2013-03-16 03:55:00
11:15 PM,42.8,41.0,93,29.71,4.0,NE,12.7,-,N/A,,Clear,50,2013-03-16 04:15:00
11:35 PM,42.8,41.0,93,29.69,4.0,East,8.1,-,N/A,,Clear,80,2013-03-16 04:35:00
11:55 PM,42.8,41.0,93,29.68,4.0,East,6.9,-,N/A,,Clear,90,2013-03-16 04:55:00